Wind_Speed
23 20 19 17 19 22 23 28 29 29 26 20 21 19 15 15 15 14 14 12 12 11 12 16 14 12 15 18 15 17 17 16 16 13 15 18 19 21 21 19 19 15 15
22 21 22 19 18 20 23 24 30 30 28 26 24 19 18 17 19 13 13 16 15 12 14 15 11 12 12 13 16 16 20 19 18 16 16 20 23 19 17 17 18 16 14
24 21 22 23 21 19 20 24 28 33 29 26 22 23 16 15 18 16 10 15 15 12 15 12 10 10 10 10 12 10 13 13 14 13 11 11 16 16 19 20 15 19 15
23 29 22 24 24 21 19 22 26 28 27 26 26 24 20 19 21 15 14 16 16 14 13 12 11 11 12 13 11 10 13 14 13 14 13 14 14 17 19 18 20 22 20
28 28 29 26 31 27 25 24 25 29 31 30 29 27 25 23 20 17 17 14 15 15 14 12 13 13 12 11 12 13 13 15 15 16 18 18 17 19 22 21 21 23 22
30 33 35 36 22 29 30 26 24 24 26 26 27 25 25 22 19 20 19 17 15 14 14 14 13 13 12 14 15 14 13 14 16 18 17 18 19 21 21 20 20 21 23
30 37 35 35 22 32 38 30 32 27 21 21 22 23 23 22 21 22 22 19 18 17 16 16 15 15 16 18 17 16 17 18 19 20 19 18 19 19 18 19 21 23 25
18 25 28 32 33 32 39 46 47 30 28 25 22 21 20 23 24 23 22 22 19 19 19 18 18 19 20 21 20 20 21 22 21 22 22 21 22 22 22 24 26 29 28
4 9 10 16 22 23 29 18 28 33 38 30 25 24 24 24 22 21 22 22 22 21 20 21 23 22 22 23 23 24 25 26 26 25 26 27 27 27 27 28 28 28 29
10 7 2 7 11 17 25 25 16 16 39 39 24 25 24 23 23 24 24 25 26 25 26 26 25 22 22 23 24 25 26 27 28 28 27 29 30 30 30 30 29 27 26
5 5 3 5 9 9 3 12 12 20 25 15 19 21 23 27 29 32 30 31 32 30 29 29 29 26 25 24 25 26 27 27 27 27 27 28 29 30 31 31 30 27 28
4 7 7 6 7 6 6 5 3 9 18 18 13 18 20 23 27 30 32 33 29 31 33 33 32 32 32 36 35 31 29 27 25 26 28 28 28 30 33 32 32 31 31
8 8 9 7 6 1 7 6 7 8 8 8 8 4 3 4 3 5 8 14 24 29 27 34 29 24 26 30 31 29 35 34 32 26 22 23 23 21 19 22 22 12 7
12 11 11 11 9 9 12 8 8 9 10 10 6 8 8 8 7 8 7 6 6 3 9 14 12 15 16 18 18 16 17 17 21 21 21 19 13 8 6 5 5 6 8
11 12 11 10 10 9 11 13 15 14 14 15 16 18 17 16 13 9 9 11 9 9 8 9 11 11 7 6 7 7 5 3 3 1 1 2 5 6 6 9 11 11 11
10 11 11 11 9 9 8 10 12 12 12 11 11 13 12 10 8 6 5 4 1 1 1 2 2 2 3 4 2 1 3 3 4 9 11 11 12 12 9 9 10 9 11
9 9 11 9 5 4 5 6 7 8 8 7 8 10 11 10 8 8 8 7 7 6 7 7 7 8 7 7 7 8 8 9 10 11 12 10 7 7 11 9 10 9 9
8 8 8 8 9 6 4 5 8 8 8 9 10 11 13 12 12 11 11 11 11 11 10 9 8 8 8 8 8 8 8 8 8 8 7 5 6 7 8 8 8 8 7
4 5 7 7 8 9 7 8 6 6 8 7 9 12 13 14 13 12 10 10 11 10 10 9 8 8 8 8 8 8 8 7 6 5 5 6 6 7 7 6 8 9 9
3 4 2 3 5 7 6 6 6 7 6 5 6 8 7 7 7 8 8 9 9 9 10 10 9 7 6 6 6 5 4 4 5 6 6 6 7 7 7 8 8 7 9
2 2 1 0 2 3 2 2 1 2 1 2 4 4 5 6 6 7 10 10 8 8 7 7 5 4 4 4 4 5 6 7 7 7 7 8 8 8 8 9 10 10 11
8 6 4 1 4 5 5 3 2 2 4 5 6 6 5 6 6 7 8 7 6 5 5 5 5 4 5 7 8 8 8 8 7 8 8 8 9 9 9 10 10 10 11
10 6 4 1 3 2 0 1 4 5 5 5 4 3 4 5 5 6 5 5 5 6 5 7 7 7 7 8 9 10 11 10 8 9 9 9 9 9 9 9 10 11 10
4 5 2 2 2 2 4 4 4 3 5 8 7 7 6 4 6 5 6 6 6 7 8 8 9 9 8 8 7 7 8 7 7 7 8 8 8 8 9 9 10 12 14
7 9 9 9 4 3 5 5 6 6 4 4 8 10 12 11 14 13 10 9 6 6 7 7 7 7 6 8 6 4 6 7 7 7 8 8 7 6 8 9 9 11 12
9 9 8 6 10 7 5 4 2 2 6 6 8 11 12 12 13 16 18 18 18 15 15 14 15 15 8 5 8 9 9 9 8 9 9 8 9 11 11 12 13 14 16
Wind_Direction
232 233 245 247 235 230 230 224 227 226 225 231 228 237 247 238 248 247 259 251 245 245 260 254 245 237 240 240 241 244 257 274 278 283 276 269 277 284 292 296 304 307 313
259 238 243 248 249 242 236 229 222 230 233 239 233 233 261 261 263 252 253 265 258 257 260 261 265 257 250 239 262 266 268 269 274 277 278 281 281 285 298 300 293 302 310
257 248 253 247 245 252 248 235 226 223 233 234 236 233 239 238 246 249 248 254 269 261 265 267 262 261 259 261 258 248 252 255 260 267 269 259 271 285 294 295 293 290 299
259 254 253 260 252 248 244 244 233 225 229 229 240 251 245 252 253 251 244 250 262 256 249 253 249 251 253 254 245 256 259 265 269 269 268 264 272 283 290 291 294 297 298
249 256 245 238 251 243 241 237 238 230 230 235 234 236 242 243 252 258 254 259 263 260 257 255 257 254 257 254 252 259 270 269 273 279 281 282 286 284 286 294 297 299 297
246 247 256 249 249 212 249 232 231 234 234 230 236 240 246 247 243 244 244 243 242 240 247 256 257 258 262 258 262 267 271 268 267 275 280 279 275 281 286 289 296 299 302
247 248 252 261 248 250 270 240 267 235 229 224 226 228 234 239 238 238 240 239 237 240 242 245 250 259 263 265 268 269 267 270 275 277 278 282 283 283 281 285 294 297 301
243 247 249 252 254 264 254 251 238 233 238 230 227 230 232 238 238 238 242 245 243 245 248 251 252 253 256 262 268 269 269 270 274 279 281 282 284 284 282 283 292 292 289
266 259 263 261 262 264 267 262 216 230 231 228 227 230 237 242 244 246 248 252 253 253 254 253 250 252 255 258 263 266 270 275 279 280 279 283 282 281 280 282 288 288 286
51 41 1 300 292 269 244 243 276 230 220 208 222 233 239 248 251 254 257 257 256 252 247 253 260 267 266 262 260 263 267 271 274 275 279 282 283 284 284 284 285 285 287
356 10 6 354 29 24 250 247 249 247 237 230 230 241 251 260 265 269 265 262 259 259 252 255 258 259 259 265 267 266 267 269 273 278 282 282 283 285 283 282 280 276 285
299 311 319 329 4 45 34 66 110 218 223 206 240 249 256 257 261 264 261 254 251 249 256 258 256 260 264 269 273 274 268 263 262 273 281 287 284 288 289 279 276 286 285
284 285 293 288 272 82 98 129 116 124 138 165 167 201 270 262 294 297 278 261 247 250 254 259 257 266 266 267 275 279 271 265 280 276 276 278 274 279 287 291 293 296 288
266 268 275 278 270 249 233 187 154 178 192 202 202 266 264 246 264 275 279 295 304 293 252 255 272 283 284 279 275 299 283 279 281 283 283 273 273 285 277 256 275 278 280
247 258 260 261 265 258 239 236 233 232 236 242 245 245 258 255 260 266 265 264 275 273 265 265 271 276 292 302 288 278 269 250 273 254 309 298 308 285 290 281 284 296 308
233 241 254 260 261 256 245 234 229 234 236 238 235 227 231 228 240 263 269 254 255 319 283 267 297 286 272 298 327 284 286 275 272 297 294 286 280 276 293 290 281 288 292
234 238 249 261 256 257 248 245 247 240 239 237 226 221 218 232 254 265 266 254 259 274 282 284 282 281 287 286 288 284 286 286 288 290 289 284 274 276 295 297 295 293 300
229 239 254 266 267 275 265 235 237 237 243 237 236 234 233 240 255 267 262 260 259 262 269 271 275 284 289 287 285 283 284 285 290 295 301 295 292 295 296 296 296 293 292
211 240 247 225 246 264 278 270 286 266 252 240 240 236 242 253 264 259 255 259 265 267 273 280 285 281 278 278 278 281 281 283 286 291 297 295 285 283 288 282 272 279 289
247 273 246 193 225 249 260 235 255 269 263 232 236 248 246 249 251 251 253 257 266 276 282 278 274 274 273 281 284 283 290 297 300 297 295 291 288 285 289 291 288 293 292
248 184 122 145 232 209 191 248 187 212 63 153 214 218 232 243 252 262 267 269 275 273 259 251 255 259 246 253 269 281 286 291 293 292 285 281 289 293 291 292 292 291 293
142 133 117 112 130 174 177 190 191 228 212 176 200 210 238 253 256 242 235 255 265 263 273 273 270 276 285 281 276 279 280 282 284 287 296 301 295 291 287 285 284 285 287
141 120 175 240 72 62 109 124 81 3 344 6 359 329 317 296 300 294 283 270 274 284 283 279 279 275 268 277 292 297 301 310 313 300 296 293 291 285 283 282 284 285 293
174 130 205 303 322 297 229 196 196 247 256 287 305 314 313 301 294 286 280 278 280 283 284 284 289 298 312 301 299 303 314 312 300 295 295 291 291 290 288 286 288 286 295
201 190 199 255 270 255 251 244 217 219 218 266 315 313 301 310 316 318 316 306 303 296 295 292 271 283 292 280 295 290 302 310 289 282 284 288 289 279 277 280 287 311 302
223 230 206 263 275 273 259 240 211 239 267 292 299 307 312 313 300 290 298 307 313 315 326 327 318 310 311 287 290 300 304 322 317 297 295 294 291 291 294 293 289 289 289
Height
3173 3178 3181 3181 3182 3183 3185 3187 3191 3191 3193 3196 3200 3203 3206 3209 3211 3212 3215 3215 3217 3219 3219 3219 3221 3222 3223 3222 3223 3223 3222 3221 3222 3222 3222 3221 3220 3221 3219 3219 3217 3216 3215
3171 3173 3176 3177 3178 3178 3180 3183 3187 3188 3190 3192 3196 3200 3203 3205 3208 3211 3211 3212 3213 3214 3215 3215 3216 3216 3218 3219 3220 3219 3219 3219 3218 3219 3219 3217 3218 3215 3215 3214 3212 3213 3211
3167 3168 3170 3171 3172 3173 3177 3180 3182 3184 3185 3187 3190 3196 3200 3201 3203 3205 3205 3206 3207 3209 3210 3211 3211 3212 3213 3214 3214 3215 3215 3215 3215 3214 3214 3214 3214 3212 3210 3208 3207 3208 3206
3160 3159 3161 3162 3167 3171 3173 3176 3178 3180 3181 3184 3185 3188 3192 3196 3198 3197 3199 3201 3203 3204 3205 3206 3207 3208 3208 3210 3211 3211 3211 3211 3211 3211 3210 3210 3210 3208 3207 3206 3204 3201 3201
3152 3152 3153 3155 3160 3163 3167 3170 3173 3174 3177 3179 3180 3183 3186 3187 3189 3191 3194 3196 3197 3199 3200 3202 3202 3203 3204 3206 3207 3206 3206 3207 3206 3205 3204 3203 3204 3203 3202 3201 3199 3197 3197
3144 3145 3144 3147 3149 3141 3155 3162 3167 3169 3170 3174 3175 3176 3180 3182 3184 3186 3187 3189 3191 3193 3196 3197 3198 3198 3199 3200 3200 3201 3201 3201 3201 3200 3199 3199 3198 3198 3197 3196 3195 3192 3190
3137 3136 3140 3130 3131 3146 3150 3151 3160 3165 3165 3168 3170 3173 3175 3177 3178 3180 3181 3183 3184 3186 3189 3190 3191 3193 3193 3194 3194 3194 3195 3195 3195 3195 3194 3193 3193 3193 3192 3190 3188 3186 3184
3132 3132 3136 3136 3139 3140 3142 3141 3149 3154 3158 3161 3164 3166 3168 3170 3172 3174 3176 3177 3179 3180 3181 3183 3185 3186 3187 3187 3187 3187 3187 3187 3188 3187 3187 3187 3187 3186 3185 3183 3181 3178 3176
3129 3130 3131 3132 3133 3134 3135 3136 3140 3141 3148 3151 3155 3158 3160 3163 3168 3170 3171 3171 3172 3173 3174 3176 3176 3177 3179 3180 3179 3179 3180 3180 3181 3180 3180 3179 3179 3178 3176 3174 3173 3171 3167
3130 3130 3131 3131 3132 3130 3126 3125 3126 3118 3133 3125 3144 3150 3152 3155 3155 3159 3163 3164 3165 3167 3168 3168 3170 3171 3171 3172 3172 3172 3172 3172 3172 3172 3172 3172 3170 3169 3167 3165 3163 3161 3160
3129 3129 3130 3129 3128 3126 3124 3123 3117 3122 3127 3127 3138 3144 3148 3150 3152 3153 3155 3156 3157 3158 3159 3161 3162 3164 3164 3163 3163 3163 3163 3164 3164 3162 3162 3162 3161 3159 3158 3156 3155 3153 3152
3126 3125 3125 3125 3125 3125 3123 3122 3119 3122 3125 3127 3132 3137 3139 3142 3143 3142 3142 3143 3145 3147 3150 3152 3152 3154 3155 3155 3155 3155 3155 3154 3154 3153 3153 3151 3151 3150 3149 3147 3145 3143 3142
3121 3122 3121 3121 3122 3123 3123 3124 3125 3126 3124 3128 3130 3133 3135 3137 3137 3136 3134 3134 3134 3137 3138 3139 3140 3143 3144 3145 3145 3145 3144 3144 3145 3144 3143 3142 3142 3142 3139 3139 3137 3136 3135
3118 3119 3119 3119 3119 3120 3122 3124 3124 3125 3125 3127 3127 3128 3134 3136 3136 3136 3134 3132 3132 3132 3133 3135 3137 3139 3139 3139 3139 3137 3136 3136 3138 3137 3137 3136 3136 3134 3134 3134 3133 3133 3133
3115 3115 3117 3117 3117 3118 3119 3120 3122 3124 3126 3126 3128 3130 3133 3134 3134 3133 3131 3131 3131 3131 3131 3132 3134 3134 3133 3133 3133 3133 3133 3133 3133 3133 3133 3133 3133 3133 3133 3132 3131 3131 3130
3112 3113 3113 3114 3115 3116 3116 3118 3120 3121 3123 3124 3124 3127 3129 3130 3130 3130 3129 3129 3129 3130 3131 3131 3131 3131 3131 3131 3131 3131 3131 3131 3130 3130 3130 3130 3130 3129 3129 3128 3127 3127 3127
3109 3110 3111 3111 3112 3112 3114 3115 3116 3117 3119 3120 3121 3124 3125 3127 3127 3127 3127 3128 3128 3128 3129 3129 3129 3129 3129 3128 3129 3129 3128 3128 3128 3127 3127 3126 3127 3126 3126 3125 3125 3124 3124
3106 3107 3108 3109 3109 3109 3110 3111 3113 3115 3116 3118 3119 3121 3122 3123 3125 3125 3125 3125 3126 3126 3127 3127 3127 3127 3126 3126 3126 3126 3126 3126 3126 3125 3125 3124 3124 3123 3122 3122 3121 3121 3121
3105 3105 3106 3107 3108 3108 3110 3110 3110 3112 3113 3115 3116 3117 3119 3120 3121 3122 3122 3122 3122 3123 3124 3124 3124 3124 3123 3123 3124 3123 3123 3123 3123 3122 3121 3121 3121 3121 3120 3120 3120 3119 3119
3103 3103 3104 3105 3107 3107 3108 3109 3110 3110 3111 3112 3114 3115 3116 3117 3118 3119 3119 3119 3120 3120 3120 3121 3120 3120 3120 3120 3120 3120 3120 3120 3120 3120 3119 3119 3119 3118 3118 3117 3116 3115 3115
3101 3102 3103 3104 3105 3106 3107 3108 3109 3110 3112 3113 3113 3114 3115 3116 3117 3117 3117 3117 3117 3118 3118 3118 3118 3118 3118 3118 3119 3118 3118 3118 3118 3117 3117 3117 3116 3115 3115 3114 3113 3112 3112
3100 3101 3102 3103 3104 3105 3106 3107 3107 3109 3110 3111 3112 3113 3113 3113 3114 3115 3115 3114 3115 3115 3115 3115 3116 3116 3115 3115 3116 3116 3116 3116 3115 3114 3113 3112 3111 3111 3110 3110 3110 3109 3109
3099 3101 3102 3103 3104 3106 3106 3107 3107 3108 3108 3110 3111 3111 3112 3112 3112 3113 3112 3113 3113 3113 3114 3113 3114 3114 3114 3113 3112 3111 3111 3111 3110 3110 3110 3109 3109 3108 3107 3107 3107 3106 3105
3098 3099 3102 3102 3103 3105 3106 3106 3107 3109 3109 3109 3111 3111 3111 3111 3111 3112 3112 3112 3112 3111 3111 3111 3110 3109 3109 3109 3109 3108 3108 3107 3106 3106 3106 3106 3106 3106 3105 3104 3103 3102 3101
3099 3100 3102 3102 3103 3104 3104 3105 3106 3107 3109 3110 3109 3110 3110 3109 3109 3108 3109 3109 3109 3109 3108 3107 3107 3106 3106 3106 3106 3106 3105 3105 3105 3104 3104 3103 3103 3103 3102 3101 3100 3098 3097
3098 3100 3100 3101 3101 3102 3103 3104 3105 3106 3107 3108 3109 3110 3109 3108 3108 3108 3108 3107 3105 3105 3105 3104 3104 3103 3103 3104 3104 3103 3103 3102 3102 3101 3101 3100 3100 3099 3099 3098 3096 3095 3094